Waarnemingen

Advertentie
Mijn weer
Kirkwall, Groot Brittannië (3017): temperatuur & dauwpunt: 13.06.2018 01:00:00 - 19.06.2018 01:00:00 (BST)Kirkwall, Groot Brittannië (3017): temperatuur -20cm & temperatuur -100cm: 13.06.2018 01:00:00 - 19.06.2018 01:00:00 (BST)Kirkwall, Groot Brittannië (3017): windsnelheid & windstoten: 13.06.2018 01:00:00 - 19.06.2018 01:00:00 (BST)Kirkwall, Groot Brittannië (3017): windrichting: 13.06.2018 01:00:00 - 19.06.2018 01:00:00 (BST)Kirkwall, Groot Brittannië (3017): luchtdruk: 13.06.2018 01:00:00 - 19.06.2018 01:00:00 (BST)Kirkwall, Groot Brittannië (3017): zicht: 13.06.2018 01:00:00 - 19.06.2018 01:00:00 (BST)Kirkwall, Groot Brittannië (3017): Zonneschijnduur: 13.06.2018 01:00:00 - 19.06.2018 01:00:00 (BST)Kirkwall, Groot Brittannië (3017): neerslag: 13.06.2018 01:00:00 - 19.06.2018 01:00:00 (BST)
Datum & Tijd tt [°C] td [°C] tt -20cm [°C] tt -100cm [°C] ff [km/u] ff [kn] fx [km/u] fx [kn] dd ppp [hPa] vv [km] sd [min] rr [mm]
19.06.2018 01:00:00 - - - - - - - - - - - - -
19.06.2018 00:00:00 10,3 6,2 - - 52 28 78 42 WZW 1004,1 12 0 0,0
18.06.2018 23:00:00 10,6 6,5 - - 50 27 70 38 WZW 1004,2 12 0 0,0
18.06.2018 22:00:00 10,4 6,1 - - 44 24 76 41 WZW 1004,2 14 12 0,0
18.06.2018 21:00:00 11,5 5,5 - - 50 27 74 40 WZW 1003,7 14 30 0,0
18.06.2018 20:00:00 12,3 5,6 - - 46 25 78 42 WZW 1003,2 17 60 0,0
18.06.2018 19:00:00 12,8 5,3 - - 54 29 72 39 WZW 1003,2 20 30 0,0
18.06.2018 18:00:00 13,3 5,7 - - 42 23 67 36 WZW 1003,5 19 6 0,0
18.06.2018 17:00:00 13,1 6,5 - - 34 18 54 29 WZW 1003,7 18 6 0,0
18.06.2018 16:00:00 13,4 6,5 - - 35 19 57 31 WZW 1003,8 18 0 0,0
18.06.2018 15:00:00 13,6 6,6 - - 46 25 59 32 WZW 1004,1 15 24 0,0
18.06.2018 14:00:00 14,2 7,2 - - 35 19 55 30 WZW 1004,2 18 12 0,0
18.06.2018 13:00:00 13,0 6,7 - - 26 14 50 27 ZW 1004,7 40 6 0,0
18.06.2018 12:00:00 12,6 6,6 - - 31 17 57 31 WZW 1004,8 28 0 0,0
18.06.2018 11:00:00 13,1 5,5 - - 46 25 67 36 WZW 1004,5 23 30 0,0
18.06.2018 10:00:00 14,3 7,0 13,4 11,7 44 24 61 33 ZW 1003,5 29 30 0,0
18.06.2018 09:00:00 12,3 6,2 - - 46 25 67 36 WZW 1003,4 19 0 0,0
18.06.2018 08:00:00 11,9 6,7 - - 41 22 57 31 WZW 1003,3 16 0 0,0
18.06.2018 07:00:00 11,9 6,6 - - 39 21 55 30 WZW 1003,2 17 0 0,0
18.06.2018 06:00:00 11,7 7,4 - - 34 18 50 27 ZW 1003,1 15 0 0,0
18.06.2018 05:00:00 10,8 7,8 - - 13 7 55 30 ZW 1003,0 17 0 0,0
18.06.2018 04:00:00 11,4 8,0 - - 44 24 63 34 WZW 1002,2 17 0 0,0
18.06.2018 03:00:00 11,6 9,4 - - 35 19 55 30 WZW 1002,3 30 0 0,0
18.06.2018 02:00:00 11,8 11,0 - - 16 9 - - WZW 1002,4 10 0 0,0
18.06.2018 01:00:00 12,2 10,6 - - 22 12 - - ZZW 1002,0 45 - 0,0
18.06.2018 00:00:00 12,1 10,7 - - 22 12 - - ZZW 1002,0 40 0 0,0
17.06.2018 23:00:00 11,9 10,7 - - 21 11 - - Z 1002,6 9 0 0,2
17.06.2018 22:00:00 11,7 9,9 - - 22 12 - - Z 1003,2 19 0 0,0
17.06.2018 21:00:00 11,8 9,9 - - 21 11 - - Z 1003,7 25 0 0,0
17.06.2018 20:00:00 12,3 9,5 - - 24 13 - - ZZO 1004,2 30 0 0,0
17.06.2018 19:00:00 13,2 9,1 - - 24 13 - - ZZO 1004,5 30 12 0,0
17.06.2018 18:00:00 14,4 9,2 - - 29 16 - - Z 1005,1 25 48 0,0
17.06.2018 17:00:00 14,5 8,7 - - 26 14 - - Z 1005,8 35 42 0,0
17.06.2018 16:00:00 14,6 8,7 - - 21 11 - - Z 1006,0 30 48 0,0
17.06.2018 15:00:00 15,4 10,2 - - 22 12 - - Z 1006,2 21 42 0,0
17.06.2018 14:00:00 16,1 8,9 - - 13 7 - - Z 1006,4 21 48 0,0
17.06.2018 13:00:00 15,2 8,1 - - 11 6 - - ZW 1006,5 23 0 0,0
17.06.2018 12:00:00 14,7 8,1 - - 8 4 - - WNW 1006,4 28 18 0,0
17.06.2018 11:00:00 13,6 9,1 - - 8 4 - - W 1006,5 30 6 0,0
17.06.2018 10:00:00 13,6 9,0 13,0 11,7 8 4 - - W 1006,7 30 36 0,0
17.06.2018 09:00:00 12,9 10,9 - - 13 7 - - ZW 1006,8 25 54 0,0
17.06.2018 08:00:00 10,0 10,0 - - 5 3 - - ZW 1006,5 19 12 0,0
17.06.2018 07:00:00 8,1 8,1 - - 2 1 - - Z 1006,6 10 0 0,0
17.06.2018 06:00:00 6,8 6,8 - - 0 0 - - N 1006,5 17 0 0,0
17.06.2018 05:00:00 5,6 5,5 - - 0 0 - - N 1006,6 0,5 0 0,0
17.06.2018 04:00:00 6,9 6,9 - - 0 0 - - N 1006,8 0,1 0 0,0
17.06.2018 03:00:00 7,5 7,5 - - 0 0 - - N 1006,8 - 0 0,0
17.06.2018 02:00:00 7,6 7,6 - - 11 6 - - Z 1007,1 11 0 0,0
17.06.2018 01:00:00 8,3 8,3 - - 13 7 - - ZZO 1006,9 0,7 - 0,0
17.06.2018 00:00:00 7,8 7,6 - - 15 8 - - ZO 1006,9 3,4 0 0,0
16.06.2018 23:00:00 8,5 8,0 - - 15 8 - - ZZO 1007,1 8 0 0,0
16.06.2018 22:00:00 9,6 9,0 - - 15 8 - - ZZO 1007,1 9 0 0,0
16.06.2018 21:00:00 10,9 9,7 - - 16 9 - - ZO 1006,9 12 6 0,0
16.06.2018 20:00:00 11,2 9,6 - - 16 9 - - ZO 1006,9 13 24 0,0
16.06.2018 19:00:00 13,0 10,2 - - 26 14 - - ZZO 1007,0 18 36 0,0
16.06.2018 18:00:00 12,0 9,8 - - 29 16 - - ZO 1007,1 21 6 0,0
16.06.2018 17:00:00 13,7 9,7 - - 28 15 - - ZO 1007,0 18 30 0,0
16.06.2018 16:00:00 14,4 10,6 - - 24 13 - - ZO 1007,1 17 60 0,0
16.06.2018 15:00:00 15,6 10,7 - - 28 15 - - ZO 1007,3 24 60 0,0
16.06.2018 14:00:00 15,0 10,0 - - 22 12 - - ZZO 1007,5 22 60 0,0
16.06.2018 13:00:00 15,3 10,2 - - 28 15 - - ZZO 1007,9 24 36 0,0
16.06.2018 12:00:00 13,8 10,2 - - 26 14 - - ZO 1008,1 30 48 0,0
16.06.2018 11:00:00 14,6 9,0 - - 26 14 - - ZO 1008,2 45 60 0,0
16.06.2018 10:00:00 13,6 9,4 12,9 11,7 26 14 - - ZO 1008,5 40 60 0,0
16.06.2018 09:00:00 13,2 8,7 - - 21 11 - - ZZO 1008,8 29 60 0,0
16.06.2018 08:00:00 12,2 9,0 - - 21 11 - - Z 1008,8 30 60 0,0
16.06.2018 07:00:00 11,0 9,7 - - 16 9 - - Z 1008,5 30 36 0,0
16.06.2018 06:00:00 10,1 9,8 - - 11 6 - - ZO 1008,6 19 0 0,0
16.06.2018 05:00:00 9,2 8,9 - - 15 8 - - ZO 1008,8 19 0 0,0
16.06.2018 04:00:00 8,2 7,8 - - 5 3 - - ZZO 1009,2 20 0 0,0
16.06.2018 03:00:00 7,8 7,4 - - 5 3 - - Z 1009,5 17 0 0,0
16.06.2018 02:00:00 8,6 7,5 - - 2 1 - - WZW 1009,7 40 0 0,0
16.06.2018 01:00:00 9,8 8,6 - - 11 6 - - ZZW 1009,8 35 - 0,0
16.06.2018 00:00:00 10,1 8,4 - - 15 8 - - Z 1009,6 50 0 0,0
15.06.2018 23:00:00 9,8 8,4 - - 16 9 - - Z 1009,6 40 0 0,0
15.06.2018 22:00:00 9,3 7,9 - - 16 9 - - Z 1009,7 40 0 0,0
15.06.2018 21:00:00 10,7 9,0 - - 15 8 - - Z 1009,4 45 0 0,0
15.06.2018 20:00:00 11,3 8,8 - - 13 7 - - ZZW 1009,2 29 0 0,6
15.06.2018 19:00:00 12,4 7,7 - - 13 7 - - ZW 1008,8 30 0 0,0
15.06.2018 18:00:00 13,6 7,3 - - 11 6 - - WZW 1008,5 24 6 0,0
15.06.2018 17:00:00 13,7 6,6 - - 26 14 - - WZW 1008,2 35 0 0,0
15.06.2018 16:00:00 13,7 7,1 - - 24 13 46 25 WZW 1008,0 35 18 0,0
15.06.2018 15:00:00 13,9 7,2 - - 35 19 50 27 W 1007,6 25 60 0,0
15.06.2018 14:00:00 14,8 7,8 - - 34 18 50 27 WZW 1007,2 40 60 0,0
15.06.2018 13:00:00 12,7 7,0 - - 35 19 50 27 WZW 1006,8 30 12 0,0
15.06.2018 12:00:00 12,8 6,4 - - 35 19 54 29 W 1006,5 40 48 0,0
15.06.2018 11:00:00 13,2 7,9 - - 34 18 48 26 WZW 1005,8 23 60 0,0
15.06.2018 10:00:00 13,5 8,3 12,9 11,9 35 19 50 27 WZW 1005,4 26 60 0,0
15.06.2018 09:00:00 12,6 8,1 - - 35 19 48 26 WZW 1004,9 27 30 0,0
15.06.2018 08:00:00 11,6 8,9 - - 28 15 - - ZW 1004,4 35 6 0,0
15.06.2018 07:00:00 10,9 8,2 - - 29 16 46 25 ZW 1003,9 35 0 0,0
15.06.2018 06:00:00 10,3 7,6 - - 29 16 - - ZZW 1003,4 22 0 0,0
15.06.2018 05:00:00 9,5 7,6 - - 18 10 - - ZZW 1003,0 18 0 0,0
15.06.2018 04:00:00 9,4 6,5 - - 28 15 50 27 ZW 1002,6 16 0 0,0
15.06.2018 03:00:00 9,9 6,8 - - 37 20 57 31 WZW 1002,2 17 0 0,0
15.06.2018 02:00:00 9,9 6,5 - - 41 22 65 35 WZW 1001,8 17 0 0,0
15.06.2018 01:00:00 10,1 6,1 - - 48 26 76 41 WZW 1000,9 16 - 0,0
15.06.2018 00:00:00 10,2 6,1 - - 44 24 70 38 WZW 1000,4 15 0 0,0
14.06.2018 23:00:00 10,0 6,2 - - 52 28 78 42 WZW 999,6 11 0 0,0
14.06.2018 22:00:00 10,4 6,1 - - 54 29 87 47 WZW 998,9 11 0 0,0
14.06.2018 21:00:00 10,7 6,0 - - 61 33 89 48 WZW 997,8 12 0 0,0
14.06.2018 20:00:00 10,6 6,1 - - 59 32 93 50 W 996,7 15 0 0,0
14.06.2018 19:00:00 10,7 6,6 - - 61 33 91 49 WZW 995,2 14 0 0,0
14.06.2018 18:00:00 10,7 7,2 - - 57 31 87 47 W 993,8 10 0 0,0
14.06.2018 17:00:00 11,1 6,8 - - 65 35 94 51 W 992,6 14 0 0,0
14.06.2018 16:00:00 11,7 7,5 - - 59 32 94 51 W 990,4 9 0 0,0
14.06.2018 15:00:00 10,6 8,7 - - 59 32 96 52 W 988,7 8 0 0,2
14.06.2018 14:00:00 10,7 9,4 - - 63 34 100 54 W 986,4 6 0 0,6
14.06.2018 13:00:00 11,3 10,1 - - 55 30 80 43 W 983,7 7 0 0,0
14.06.2018 12:00:00 12,8 11,0 - - 48 26 68 37 W 981,2 20 0 0,6
14.06.2018 11:00:00 14,7 12,5 - - 26 14 - - ZZW 978,9 9 0 0,0
14.06.2018 10:00:00 13,8 11,3 13,2 11,9 22 12 46 25 ZZW 978,8 35 0 0,2
14.06.2018 09:00:00 15,4 11,8 - - 34 18 57 31 ZZW 978,8 22 48 0,0
14.06.2018 08:00:00 14,0 12,3 - - 31 17 52 28 Z 979,1 15 18 0,0
14.06.2018 07:00:00 12,6 11,5 - - 34 18 48 26 Z 980,5 17 0 0,0
14.06.2018 06:00:00 12,4 11,0 - - 26 14 - - Z 981,9 14 0 0,2
14.06.2018 05:00:00 12,1 10,9 - - 34 18 48 26 Z 983,4 13 0 0,0
14.06.2018 04:00:00 12,0 11,1 - - 35 19 52 28 ZZO 985,1 12 0 0,0
14.06.2018 03:00:00 11,7 11,2 - - 37 20 52 28 ZZO 986,8 10 0 1,2
14.06.2018 02:00:00 11,4 11,2 - - 41 22 59 32 ZZO 988,7 3,9 0 2,2
14.06.2018 01:00:00 11,5 11,2 - - 39 21 55 30 ZZO 990,6 5 - 0,4
14.06.2018 00:00:00 11,3 11,1 - - 37 20 52 28 ZZO 993,0 5 0 1,8
13.06.2018 23:00:00 11,3 11,0 - - 31 17 46 25 ZZO 995,7 5 0 0,4
13.06.2018 22:00:00 11,3 10,8 - - 31 17 - - ZZO 997,3 7 0 0,8
13.06.2018 21:00:00 10,8 10,0 - - 26 14 - - ZZO 999,4 16 0 0,2
13.06.2018 20:00:00 10,8 9,8 - - 24 13 - - ZZO 1001,1 14 0 0,8
13.06.2018 19:00:00 10,8 10,3 - - 24 13 - - ZZO 1002,4 8 0 0,8
13.06.2018 18:00:00 11,2 10,2 - - 22 12 - - Z 1003,5 11 0 0,4
13.06.2018 17:00:00 11,4 10,0 - - 28 15 - - Z 1005,0 13 0 0,4
13.06.2018 16:00:00 11,9 10,6 - - 24 13 - - Z 1005,9 11 0 0,4
13.06.2018 15:00:00 11,8 10,4 - - 28 15 - - ZZO 1007,0 11 0 0,2
13.06.2018 14:00:00 12,2 9,5 - - 24 13 - - ZZO 1008,2 30 0 0,0
13.06.2018 13:00:00 11,8 8,6 - - 22 12 - - ZZO 1009,5 30 0 0,0
13.06.2018 12:00:00 12,1 7,2 - - 18 10 - - ZZO 1010,7 40 0 0,0
13.06.2018 11:00:00 12,3 5,9 - - 22 12 - - Z 1011,4 25 0 0,0
13.06.2018 10:00:00 11,7 5,8 13,5 11,7 21 11 - - Z 1012,4 45 0 0,0
13.06.2018 09:00:00 11,2 5,0 - - 18 10 - - ZZW 1013,2 45 0 0,0
13.06.2018 08:00:00 10,8 6,5 - - 16 9 - - ZZW 1013,7 27 0 0,0
13.06.2018 07:00:00 10,4 7,1 - - 11 6 - - ZW 1014,3 35 0 0,0
13.06.2018 06:00:00 9,5 7,7 - - 9 5 - - ZZW 1015,1 35 0 0,0
13.06.2018 05:00:00 9,4 8,0 - - 9 5 - - ZW 1015,5 14 0 0,0
13.06.2018 04:00:00 9,6 5,8 - - 13 7 - - ZW 1016,1 50 0 0,0
13.06.2018 03:00:00 9,2 5,9 - - 5 3 - - W 1016,7 50 0 0,0
13.06.2018 02:00:00 9,4 7,2 - - 9 5 - - WZW 1017,4 50 0 0,0
13.06.2018 01:00:00 9,5 7,6 - - 5 3 - - W 1017,6 50 - 0,0

tt = temperatuur
td = dauwpunt
tt -20cm = temperatuur -20cm
tt -100cm = temperatuur -100cm
ff = windsnelheid
fx = windstoten
dd = windrichting
ppp = luchtdruk
vv = zicht
sd = Zonneschijnduur
rr = neerslag

Weerstations in de omgeving